Flag for Denmark Weather past 2 weeks in Aalborg, Denmark

Now
55 °F

Passing clouds.


Feels Like: 51 °F
Forecast: 52 / 56 °F
Wind: 16 mph from South

Location: Aalborg Airport

Current Time: Oct 24, 2014 at 9:22:18 AM

Latest Report: Oct 24, 2014 at 8:50 AM


Visibility: 3 mi

Pressure: 29.95 "Hg

Humidity: 94%

Dew point: 54 °F

Location of AalborgLocation

Historic Weather in Aalborg — Graph

°F

Aalborg temperature yesterday

Maximum temperature yesterday: 54 °F (at 12:20 AM)
Minimum temperature yesterday: 52 °F (at 4:20 AM)
Average temperature yesterday: 53 °F

Past Weeks' High & Low Weather Summary

 TemperatureHumidityPressure
High64 °F (Oct 9, 1:20 PM)100% (Oct 11, 3:20 AM)30.07 "Hg (Oct 11, 3:20 AM)
Low41 °F (Oct 13, 2:50 AM)60% (Oct 9, 3:20 PM)29.30 "Hg (Oct 21, 5:50 PM)
Average54 °F91%29.76 "Hg
* Reported Oct 9 7:20 AM — Oct 24 7:50 AM, Aalborg, Weather by CustomWeather, © 2014

Note: Actual official high and low records may vary slightly from our data, if they occured in-between our weather recording intervals... More about our weather records

Advertising

Aalborg weather history for previous 24 hours

 ConditionsComfort  
Time TempWeatherWind HumidityBarometerVisibility
7:50 AM
Oct 24
54 °FMostly cloudy.15 mph94%29.95 "Hg2 mi
7:20 AM54 °FDrizzle. Mostly cloudy.14 mph94%29.95 "Hg2 mi
6:50 AM54 °FLight rain. Passing clouds.15 mph94%29.95 "Hg5 mi
6:20 AM54 °FPassing clouds.15 mph94%29.95 "Hg5 mi
5:50 AM54 °FPartly cloudy.14 mph94%29.98 "Hg4 mi
5:20 AM54 °FPartly cloudy.14 mph94%29.98 "Hg4 mi
5:01 AM54 °FPartly cloudy.15 mph94%29.98 "Hg4 mi
4:20 AM54 °FPassing clouds.16 mph94%29.98 "HgN/A
3:50 AM54 °FPassing clouds.17 mph94%29.98 "HgN/A
3:20 AM54 °FPassing clouds.16 mph94%29.98 "HgN/A
2:50 AM54 °FPassing clouds.15 mph94%30.01 "HgN/A
2:20 AM54 °FPassing clouds.13 mph94%30.01 "HgN/A
1:50 AM54 °FPassing clouds.14 mph94%30.01 "HgN/A
1:20 AM54 °FPassing clouds.14 mph94%30.01 "HgN/A
12:50 AM54 °FPassing clouds.10 mph94%30.01 "HgN/A
12:20 AM54 °FPartly cloudy.13 mph94%30.01 "HgN/A
11:50 PM
Oct 23
54 °FPartly cloudy.16 mph100%30.01 "Hg4 mi
11:20 PM54 °FPartly cloudy.16 mph100%30.01 "HgN/A
10:50 PM54 °FPartly cloudy.15 mph100%30.01 "HgN/A
10:20 PM54 °FDrizzle. Fog.13 mph100%30.01 "Hg3 mi
9:50 PM54 °FPartly cloudy.12 mph94%30.04 "Hg4 mi
9:20 PM54 °FPassing clouds.15 mph94%30.04 "HgN/A
8:50 PM54 °FPartly cloudy.12 mph94%30.01 "HgN/A
8:20 PM54 °FPassing clouds.12 mph94%30.04 "Hg5 mi
7:50 PM54 °FLight rain. Passing clouds.13 mph94%30.04 "Hg4 mi
7:20 PM54 °FLight rain. Passing clouds.16 mph94%30.04 "Hg4 mi
6:50 PM54 °FRain. Fog.16 mph94%30.04 "Hg2 mi
6:20 PM52 °FDrizzle. Fog.16 mph100%30.04 "Hg2 mi
5:50 PM52 °FDrizzle. Fog.16 mph100%30.04 "Hg2 mi
5:20 PM52 °FDrizzle. Broken clouds.17 mph94%30.04 "Hg3 mi
4:50 PM52 °FDrizzle. Partly sunny.15 mph94%30.04 "Hg2 mi
4:20 PM52 °FDrizzle. Broken clouds.17 mph94%30.04 "Hg3 mi
3:50 PM52 °FDrizzle. Broken clouds.16 mph94%30.04 "Hg2 mi
3:20 PM52 °FDrizzle. Partly sunny.15 mph94%30.04 "Hg3 mi
2:50 PM52 °FDrizzle. Partly sunny.14 mph94%30.04 "Hg2 mi
2:20 PM52 °FLight rain. Partly sunny.13 mph94%30.04 "Hg6 mi
1:50 PM52 °FLight rain. Partly sunny.10 mph94%30.07 "HgN/A
1:20 PM52 °FRain. Partly sunny.10 mph94%30.07 "HgN/A
12:50 PM54 °FLight rain. Partly sunny.10 mph82%30.07 "Hg5 mi
12:20 PM54 °FLight rain. Partly sunny.10 mph82%30.07 "HgN/A
11:50 AM54 °FLight rain. Partly sunny.10 mph82%30.07 "HgN/A
11:20 AM54 °FLight rain. Partly sunny.8 mph82%30.07 "HgN/A
10:50 AM52 °FPartly sunny.8 mph88%30.07 "HgN/A
10:20 AM52 °FBroken clouds.8 mph94%30.04 "HgN/A
9:50 AM52 °FPartly sunny.9 mph94%30.04 "HgN/A
9:20 AM52 °FPartly sunny.8 mph94%30.04 "HgN/A
Weather by CustomWeather, © 2014

See weather overviewHow to use our weather pages